Flag for U.S.A. Weather past 2 weeks in St. Croix Falls, Wisconsin, U.S.A.

Now
59 °F

Sunny.


Feels Like: 60 °F
Forecast: 39 / 65 °F
Wind: 3 mph from Northwest

Location: L O Simenstad Municipal Airport

Current Time: Mar 31, 2015 at 7:43:41 PM

Latest Report: Mar 31, 2015 at 7:15 PM


Visibility: 10 mi

Pressure: 29.91 "Hg

Humidity: 27%

Dew point: 26 °F

Location of St. Croix FallsLocation

Historic Weather in St. Croix Falls — Graph

°F

St. Croix Falls temperature yesterday

Maximum temperature yesterday: 52 °F (at 5:55 PM)
Minimum temperature yesterday: 30 °F (at 7:15 AM)
Average temperature yesterday: 41 °F

Past Weeks' High & Low Weather Summary

 TemperatureHumidityPressure
High63 °F (Mar 31, 5:15 PM)100% (Mar 20, 7:15 AM)30.52 "Hg (Mar 20, 7:15 AM)
Low13 °F (Mar 27, 6:55 AM)23% (Mar 27, 5:55 PM)29.56 "Hg (Mar 29, 10:55 AM)
Average35 °F62%30.13 "Hg
* Reported Mar 16 6:15 PM — Mar 31 6:15 PM, St. Croix Falls, Weather by CustomWeather, © 2015

Note: Actual official high and low records may vary slightly from our data, if they occured in-between our weather recording intervals... More about our weather records

Advertising

St. Croix Falls weather history for previous 24 hours

 ConditionsComfort  
Time TempWeatherWind HumidityBarometerVisibility
6:15 PM
Tue, Mar 31
62 °FSunny.7 mph27%29.91 "Hg10 mi
5:55 PM62 °FSunny.7 mph27%29.90 "Hg10 mi
5:35 PM63 °FSunny.8 mph26%29.90 "Hg10 mi
5:15 PM63 °FSunny.8 mph28%29.90 "Hg10 mi
4:55 PM63 °FSunny.6 mph26%29.90 "Hg10 mi
4:15 PM62 °FSunny.7 mph28%29.91 "Hg10 mi
3:55 PM63 °FSunny.12 mph28%29.91 "Hg10 mi
3:15 PM62 °FSunny.8 mph28%29.91 "Hg10 mi
2:55 PM62 °FSunny.13 mph29%29.92 "Hg10 mi
2:35 PM61 °FSunny.12 mph31%29.92 "Hg10 mi
2:15 PM62 °FSunny.13 mph31%29.92 "Hg10 mi
1:55 PM61 °FSunny.10 mph32%29.93 "Hg10 mi
1:15 PM60 °FSunny.15 mph34%29.93 "Hg10 mi
12:55 PM59 °FSunny.12 mph36%29.93 "Hg10 mi
12:35 PM59 °FSunny.10 mph38%29.93 "Hg10 mi
12:15 PM56 °FSunny.8 mph42%29.94 "Hg10 mi
11:55 AM56 °FSunny.9 mph44%29.95 "Hg10 mi
11:15 AM45 °FSunny.6 mph100%29.95 "Hg10 mi
10:55 AM44 °FSunny.7 mph100%29.95 "Hg10 mi
10:15 AM40 °FScattered clouds.No wind100%29.95 "Hg10 mi
9:55 AM38 °FPartly sunny.No wind100%29.95 "Hg7 mi
9:35 AM36 °FFog.3 mph100%29.95 "Hg1 mi
9:15 AM34 °FFog.3 mph100%29.94 "Hg0 mi
8:55 AM33 °FFog.No wind100%29.94 "Hg0 mi
8:15 AM31 °FIce fog.No wind100%29.94 "Hg0 mi
7:55 AM31 °FIce fog.No wind100%29.93 "Hg0 mi
7:15 AM30 °FIce fog.No wind100%29.92 "Hg0 mi
6:55 AM31 °FIce fog.No wind100%29.92 "Hg0 mi
6:15 AM31 °FIce fog.No wind100%29.91 "Hg0 mi
5:55 AM32 °FFog.No wind100%29.91 "Hg0 mi
5:35 AM32 °FFog.No wind100%29.91 "Hg0 mi
5:15 AM32 °FFog.No wind100%29.91 "Hg0 mi
4:55 AM32 °FFog.No wind100%29.91 "Hg0 mi
4:35 AM32 °FFog.No wind100%29.90 "Hg0 mi
4:15 AM32 °FFog.No wind100%29.91 "Hg0 mi
3:55 AM31 °FIce fog.No wind100%29.90 "Hg0 mi
3:15 AM31 °FIce fog.No wind100%29.91 "Hg0 mi
2:55 AM30 °FIce fog.No wind100%29.89 "Hg0 mi
2:15 AM29 °FIce fog.No wind100%29.90 "Hg0 mi
1:55 AM29 °FIce fog.No wind100%29.90 "Hg1 mi
1:35 AM31 °FIce fog.No wind100%29.90 "Hg0 mi
1:15 AM30 °FIce fog.No wind100%29.90 "Hg1 mi
12:55 AM30 °FClear.No wind100%29.89 "Hg7 mi
12:35 AM31 °FClear.No wind100%29.90 "Hg10 mi
12:15 AM31 °FPassing clouds.No wind100%29.91 "Hg10 mi
11:55 PM
Mon, Mar 30
32 °FIce fog.No wind100%29.91 "Hg2 mi
11:35 PM35 °FClear.No wind100%29.91 "Hg10 mi
11:15 PM37 °FClear.No wind100%29.91 "Hg10 mi
10:55 PM39 °FClear.6 mph100%29.91 "Hg10 mi
10:15 PM39 °FClear.5 mph93%29.91 "Hg10 mi
9:55 PM41 °FClear.No wind87%29.90 "Hg10 mi
9:15 PM42 °FPassing clouds.5 mph84%29.89 "Hg10 mi
8:55 PM44 °FOvercast.5 mph80%29.88 "Hg10 mi
8:15 PM45 °FMostly cloudy.9 mph78%29.87 "Hg10 mi
7:55 PM46 °FMostly cloudy.8 mph78%29.86 "Hg10 mi
7:15 PM47 °FPartly sunny.12 mph74%29.85 "Hg10 mi
Weather by CustomWeather, © 2015

See weather overviewHow to use our weather pages